FW3914 Weather Reports


time (UTC)temp
C
wind
direction
speed
KPH
gust
KPH
rain 1hr
cm
rain 24hr
cm
rain mn
cm
humidity
%
barometer
mb
20260506033623 20 251 4.8 19.3 0.00 0.00 0.00 78 1008.4
20260506033120 20 146 0.0 4.8 0.00 0.00 0.00 78 1008.4
20260506032617 20 17 6.4 11.3 0.00 0.00 0.00 77 1008.3
20260506032114 20 21 4.8 9.7 0.00 0.00 0.00 77 1008.3
20260506031611 20 23 3.2 9.7 0.00 0.00 0.00 77 1007.8
20260506031108 21 321 3.2 8.0 0.00 0.00 0.00 76 1008.2
20260506030607 21 3 1.6 9.7 0.00 0.00 0.00 76 1008.1
20260506030103 21 64 3.2 8.0 0.00 0.00 0.00 76 1008.3
20260506025600 21 345 4.8 12.9 0.00 0.00 0.00 76 1007.8
20260506025056 21 16 4.8 11.3 0.00 0.00 0.00 76 1007.7
20260506024553 21 33 6.4 9.7 0.00 0.00 0.00 76 1007.5
20260506024049 21 19 6.4 14.5 0.00 0.00 0.00 76 1007.1
20260506023540 21 219 4.8 8.0 0.00 0.00 0.00 76 1007.1
20260506023038 22 11 4.8 9.7 0.00 0.00 0.00 76 1007.0
20260506022535 22 5 6.4 11.3 0.00 0.00 0.00 75 1006.7
20260506022032 23 266 3.2 12.9 0.00 0.00 0.00 75 1006.7
20260506021529 23 229 0.0 8.0 0.00 0.00 0.00 74 1006.5
20260506021027 23 275 0.0 11.3 0.00 0.00 0.00 73 1006.3
20260506020524 23 36 4.8 8.0 0.00 0.00 0.00 73 1006.0
20260506020021 23 234 3.2 9.7 0.00 0.00 0.00 72 1006.5
20260506015519 23 321 4.8 9.7 0.00 0.00 0.00 72 1006.1
20260506015016 23 191 1.6 4.8 0.00 0.00 0.00 72 1006.3
20260506014513 23 198 3.2 4.8 0.00 0.00 0.00 72 1005.9
20260506014009 23 265 3.2 4.8 0.00 0.00 0.00 72 1006.0
20260506013507 23 250 3.2 4.8 0.00 0.00 0.00 71 1006.1
20260506013003 23 182 0.0 4.8 0.00 0.00 0.00 71 1005.8
20260506012459 23 266 0.0 8.0 0.00 0.00 0.00 71 1006.0
20260506011957 23 248 1.6 8.0 0.00 0.00 0.00 70 1006.2
20260506011454 23 244 3.2 8.0 0.00 0.00 0.00 70 1005.8
20260506010950 23 3 3.2 9.7 0.00 0.00 0.00 69 1005.8
20260506010450 23 304 4.8 17.7 0.00 0.00 0.00 69 1005.8
20260506005945 24 268 3.2 9.7 0.00 0.00 0.00 70 1005.5
20260506005443 24 244 3.2 11.3 0.00 0.00 0.00 71 1005.5
20260506004938 25 351 4.8 16.1 0.00 0.00 0.00 70 1005.6
20260506004436 25 221 4.8 11.3 0.00 0.00 0.00 69 1005.5
20260506003932 25 231 3.2 14.5 0.00 0.00 0.00 68 1005.2
20260506003429 26 346 4.8 6.4 0.00 0.00 0.00 67 1005.1
20260506002925 26 260 0.0 8.0 0.00 0.00 0.00 67 1005.3
20260506002421 26 230 4.8 14.5 0.00 0.00 0.00 66 1005.6
20260506001917 26 269 3.2 11.3 0.00 0.00 0.00 66 1005.3
20260506001414 26 32 1.6 9.7 0.00 0.00 0.00 65 1005.4
20260506000911 27 351 3.2 12.9 0.00 0.00 0.00 64 1005.3
20260506000409 27 237 3.2 11.3 0.00 0.00 0.00 63 1004.7
20260505235905 27 262 1.6 8.0 0.00 0.00 0.00 63 1004.6
20260505235404 28 61 4.8 9.7 0.00 0.00 0.00 61 1004.4
20260505234900 28 315 3.2 8.0 0.00 0.00 0.00 58 1004.6
20260505234358 29 255 3.2 8.0 0.00 0.00 0.00 55 1004.6
20260505233854 29 273 6.4 9.7 0.00 0.00 0.00 55 1004.6
20260505233352 29 231 4.8 6.4 0.00 0.00 0.00 62 1004.4
20260505232849 29 225 3.2 12.9 0.00 0.00 0.00 72 1004.6
20260505232347 29 182 3.2 8.0 0.00 0.00 0.00 71 1004.2
20260505231844 29 222 3.2 19.3 0.00 0.00 0.00 71 1003.8
20260505231341 30 184 4.8 8.0 0.00 0.00 0.00 70 1004.0
20260505230839 30 140 4.8 9.7 0.00 0.00 0.00 70 1003.8
20260505230336 30 240 1.6 11.3 0.00 0.00 0.00 70 1003.6
20260505225833 30 200 4.8 12.9 0.00 0.00 0.00 69 1003.6
20260505225330 30 239 4.8 11.3 0.00 0.00 0.00 68 1003.9
20260505224825 30 227 4.8 14.5 0.00 0.00 0.00 67 1003.9
20260505224323 30 210 3.2 11.3 0.00 0.00 0.00 67 1003.8
20260505223820 30 251 3.2 12.9 0.00 0.00 0.00 66 1003.6
20260505223317 31 119 3.2 9.7 0.00 0.00 0.00 63 1003.6
20260505222813 32 217 4.8 11.3 0.00 0.00 0.00 61 1003.7
20260505222309 33 182 6.4 12.9 0.00 0.00 0.00 58 1003.3
20260505221806 32 216 3.2 9.7 0.00 0.00 0.00 56 1003.6
20260505221303 32 253 4.8 11.3 0.00 0.00 0.00 55 1003.7
20260505220800 32 238 4.8 16.1 0.00 0.00 0.00 55 1003.5
20260505220257 32 218 3.2 12.9 0.00 0.00 0.00 54 1003.6
20260505215755 32 221 3.2 14.5 0.00 0.00 0.00 53 1003.9
20260505215253 33 217 6.4 16.1 0.00 0.00 0.00 51 1003.7
20260505214750 33 206 9.7 19.3 0.00 0.00 0.00 52 1003.6
20260505214248 32 218 9.7 22.5 0.00 0.00 0.00 54 1003.4
20260505213745 33 237 3.2 16.1 0.00 0.00 0.00 52 1003.7
20260505213242 33 204 8.0 14.5 0.00 0.00 0.00 52 1003.8
20260505212737 33 287 3.2 17.7 0.00 0.00 0.00 53 1003.8
20260505212235 32 178 8.0 16.1 0.00 0.00 0.00 55 1004.1
20260505211732 32 201 8.0 16.1 0.00 0.00 0.00 55 1004.1
20260505211229 33 206 12.9 19.3 0.00 0.00 0.00 52 1004.0
20260505210726 33 292 9.7 19.3 0.00 0.00 0.00 52 1003.9
20260505210222 33 218 4.8 19.3 0.00 0.00 0.00 53 1003.8
20260505205720 32 190 11.3 19.3 0.00 0.00 0.00 54 1003.9
20260505205218 33 261 6.4 22.5 0.00 0.00 0.00 54 1004.0
20260505204714 32 227 4.8 17.7 0.00 0.00 0.00 56 1004.2
20260505204212 32 227 3.2 12.9 0.00 0.00 0.00 57 1004.3
20260505203709 31 225 8.0 16.1 0.00 0.00 0.00 60 1004.5
20260505203206 31 203 11.3 17.7 0.00 0.00 0.00 60 1004.3
20260505202702 32 184 8.0 22.5 0.00 0.00 0.00 59 1004.6
20260505202158 31 262 8.0 16.1 0.00 0.00 0.00 61 1004.6
20260505201654 32 201 8.0 24.1 0.00 0.00 0.00 60 1004.7
20260505201153 32 206 6.4 14.5 0.00 0.00 0.00 60 1004.6
20260505200651 31 218 4.8 16.1 0.00 0.00 0.00 63 1004.7
20260505200147 31 192 3.2 12.9 0.00 0.00 0.00 63 1004.7
20260505195643 31 240 8.0 14.5 0.00 0.00 0.00 61 1004.5
20260505195140 31 205 11.3 17.7 0.00 0.00 0.00 63 1004.7
20260505194638 31 213 8.0 25.7 0.00 0.00 0.00 63 1004.6
20260505194134 30 225 4.8 20.9 0.00 0.00 0.00 65 1004.7
20260505193630 30 230 9.7 19.3 0.00 0.00 0.00 64 1004.6
20260505193127 31 193 8.0 14.5 0.00 0.00 0.00 64 1004.5
20260505192626 30 234 11.3 19.3 0.00 0.00 0.00 64 1004.7
20260505192123 30 216 12.9 12.9 0.00 0.00 0.00 64 1004.6
20260505191622 30 180 8.0 14.5 0.00 0.00 0.00 66 1004.8
20260505191119 30 207 8.0 16.1 0.00 0.00 0.00 65 1004.8
20260505190615 30 201 11.3 19.3 0.00 0.00 0.00 65 1004.8
20260505190110 30 246 6.4 24.1 0.00 0.00 0.00 66 1005.0
20260505185607 29 262 6.4 14.5 0.00 0.00 0.00 67 1004.8
20260505185103 28 233 16.1 22.5 0.00 0.00 0.00 68 1004.8
20260505184600 28 215 3.2 19.3 0.00 0.00 0.00 68 1004.9
20260505184057 28 192 9.7 17.7 0.00 0.00 0.00 68 1005.0
20260505183553 28 196 9.7 24.1 0.00 0.00 0.00 68 1005.0
20260505183051 28 207 12.9 24.1 0.00 0.00 0.00 68 1004.9
20260505182547 28 215 4.8 22.5 0.00 0.00 0.00 68 1004.8
20260505182044 28 224 8.0 19.3 0.00 0.00 0.00 68 1004.9
20260505181541 28 196 6.4 27.4 0.00 0.00 0.00 68 1004.8
20260505181038 28 203 6.4 22.5 0.00 0.00 0.00 67 1004.9
20260505180533 30 179 12.9 14.5 0.00 0.00 0.00 66 1004.9
20260505180032 29 224 8.0 19.3 0.00 0.00 0.00 67 1005.1
20260505175532 29 268 4.8 16.1 0.00 0.00 0.00 68 1005.1
20260505175029 28 231 8.0 20.9 0.00 0.00 0.00 68 1004.9
20260505174526 28 200 19.3 20.9 0.00 0.00 0.00 68 1004.8
20260505174022 28 201 8.0 17.7 0.00 0.00 0.00 69 1005.0
20260505173519 28 216 6.4 17.7 0.00 0.00 0.00 68 1005.0
20260505173016 28 213 8.0 17.7 0.00 0.00 0.00 69 1005.1
20260505172514 28 208 22.5 22.5 0.00 0.00 0.00 68 1005.2
20260505172009 28 265 9.7 20.9 0.00 0.00 0.00 69 1005.4
20260505171505 28 207 8.0 20.9 0.00 0.00 0.00 70 1005.2
20260505171002 28 237 8.0 14.5 0.00 0.00 0.00 70 1005.0
20260505170458 27 207 4.8 17.7 0.00 0.00 0.00 70 1005.2
20260505165954 28 243 8.0 20.9 0.00 0.00 0.00 69 1005.3
20260505165450 27 209 8.0 17.7 0.00 0.00 0.00 71 1005.1
20260505164945 27 222 8.0 20.9 0.00 0.00 0.00 71 1005.2
20260505164442 27 222 11.3 20.9 0.00 0.00 0.00 71 1005.4
20260505163940 27 185 14.5 27.4 0.00 0.00 0.00 71 1005.2
20260505163439 27 247 4.8 20.9 0.00 0.00 0.00 71 1005.1
20260505162938 27 181 9.7 24.1 0.00 0.00 0.00 71 1005.0
20260505162433 27 192 6.4 29.0 0.00 0.00 0.00 72 1005.0
20260505161930 27 182 9.7 32.2 0.00 0.00 0.00 71 1004.8
20260505161426 27 226 8.0 22.5 0.00 0.00 0.00 72 1005.1
20260505160924 27 181 6.4 16.1 0.00 0.00 0.00 72 1004.7
20260505160422 27 242 6.4 19.3 0.00 0.00 0.00 72 1004.7
20260505152858 26 197 4.8 17.7 0.00 0.00 0.00 76 1004.7
20260505152350 26 177 8.0 20.9 0.00 0.00 0.00 76 1004.8
20260505151849 25 186 8.0 19.3 0.00 0.00 0.00 78 1005.1
20260505151346 25 228 6.4 35.4 0.00 0.00 0.00 79 1005.0
20260505150843 25 212 3.2 19.3 0.00 0.00 0.00 80 1005.0
20260505150340 25 160 11.3 17.7 0.00 0.00 0.00 79 1004.9
20260505140304 22 256 4.8 12.9 0.00 0.00 0.00 85 1005.2
20260505130147 22 259 3.2 14.5 0.00 0.00 0.00 87 1004.6
20260505124637 21 238 3.2 9.7 0.00 0.00 0.00 88 1004.7
20260505124133 21 174 6.4 16.1 0.00 0.00 0.00 88 1004.6
20260505123629 21 198 4.8 12.9 0.00 0.00 0.00 88 1004.1
20260505123126 21 186 3.2 16.1 0.00 0.00 0.00 88 1004.1
20260505122623 21 254 3.2 14.5 0.00 0.00 0.00 88 1003.9
20260505122120 21 183 4.8 14.5 0.00 0.00 0.00 88 1004.5
20260505121617 21 201 4.8 12.9 0.00 0.00 0.00 88 1004.4
20260505121114 21 247 9.7 20.9 0.00 0.00 0.00 88 1004.3
20260505120610 21 172 6.4 16.1 0.00 0.00 0.00 88 1004.1
20260505120106 21 225 11.3 17.7 0.00 0.00 0.00 88 1004.2
20260505115600 21 75 3.2 12.9 0.00 0.00 0.00 88 1004.1
20260505115058 21 201 6.4 19.3 0.00 0.00 0.00 88 1004.2
20260505114555 21 253 4.8 12.9 0.00 0.00 0.00 88 1004.2
20260505114051 21 220 4.8 14.5 0.00 0.00 0.00 88 1004.3
20260505113547 21 207 8.0 16.1 0.00 0.00 0.00 87 1004.0
20260505113044 21 199 6.4 14.5 0.00 0.00 0.00 88 1003.7
20260505112540 21 209 8.0 11.3 0.00 0.00 0.00 88 1003.8
20260505112038 21 198 6.4 22.5 0.00 0.00 0.00 88 1004.0
20260505111532 21 215 14.5 17.7 0.00 0.00 0.00 88 1003.8
20260505111029 21 231 6.4 14.5 0.00 0.00 0.00 88 1003.7
20260505110525 21 175 3.2 14.5 0.00 0.00 0.00 88 1003.5
20260505101958 21 218 9.7 16.1 0.00 0.00 0.00 87 1003.9
20260505101455 21 230 3.2 17.7 0.00 0.00 0.00 87 1003.9
20260505100952 21 150 6.4 17.7 0.00 0.00 0.00 87 1004.0
20260505100449 21 243 6.4 16.1 0.00 0.00 0.00 87 1004.1
20260505095945 21 208 4.8 20.9 0.00 0.00 0.00 87 1003.9
20260505095442 21 223 3.2 19.3 0.00 0.00 0.00 87 1003.9
20260505094938 21 264 6.4 14.5 0.00 0.00 0.00 87 1004.1
20260505094435 21 222 6.4 16.1 0.00 0.00 0.00 87 1004.1
20260505093931 21 227 4.8 27.4 0.00 0.00 0.00 87 1004.4
20260505093428 21 161 8.0 25.7 0.00 0.00 0.00 87 1004.2
20260505092925 21 140 4.8 17.7 0.00 0.00 0.00 87 1004.3
20260505092423 21 95 3.2 17.7 0.00 0.00 0.00 87 1004.5
20260505091920 21 253 3.2 20.9 0.00 0.00 0.00 87 1004.3
20260505091418 21 271 3.2 17.7 0.00 0.00 0.00 87 1004.5
20260505090916 21 193 8.0 22.5 0.00 0.00 0.00 87 1004.2
20260505090414 21 227 8.0 17.7 0.00 0.00 0.00 87 1004.3
20260505085911 21 187 9.7 24.1 0.00 0.00 0.00 87 1004.4
20260505085409 21 150 1.6 22.5 0.00 0.00 0.00 87 1004.5
20260505084906 21 227 3.2 17.7 0.00 0.00 0.00 87 1004.4
20260505084405 21 191 11.3 17.7 0.00 0.00 0.00 87 1004.4
20260505083902 21 203 9.7 17.7 0.00 0.00 0.00 87 1004.3
20260505083359 21 205 4.8 19.3 0.00 0.00 0.00 87 1004.2
20260505082855 21 190 8.0 20.9 0.00 0.00 0.00 87 1004.2
20260505082351 21 255 6.4 14.5 0.00 0.00 0.00 87 1004.5
20260505081848 21 153 3.2 16.1 0.00 0.00 0.00 87 1004.4
20260505081345 21 233 4.8 17.7 0.00 0.00 0.00 87 1004.4
20260505080842 21 232 6.4 19.3 0.00 0.00 0.00 87 1004.4
20260505080338 21 173 11.3 20.9 0.00 0.00 0.00 87 1004.4
20260505075833 21 157 4.8 17.7 0.00 0.00 0.00 87 1004.6
20260505075330 21 221 8.0 12.9 0.00 0.00 0.00 86 1004.7
20260505074828 21 181 3.2 20.9 0.00 0.00 0.00 86 1004.7
20260505074325 21 174 3.2 17.7 0.00 0.00 0.00 86 1004.8
20260505073822 21 192 9.7 17.7 0.00 0.00 0.00 86 1005.1
20260505073320 21 275 3.2 17.7 0.00 0.00 0.00 85 1005.1
20260505072817 21 218 4.8 16.1 0.00 0.00 0.00 85 1005.3
20260505072313 21 256 6.4 20.9 0.00 0.00 0.00 85 1005.3
20260505071809 21 183 4.8 12.9 0.00 0.00 0.00 85 1005.4
20260505071306 21 195 0.0 12.9 0.00 0.00 0.00 84 1005.3
20260505070804 22 209 6.4 14.5 0.00 0.00 0.00 84 1005.3
20260505070300 22 192 11.3 17.7 0.00 0.00 0.00 84 1005.0
20260505065755 22 262 6.4 12.9 0.00 0.00 0.00 84 1005.5
20260505065252 22 186 4.8 16.1 0.00 0.00 0.00 84 1005.4
20260505064749 22 170 6.4 29.0 0.00 0.00 0.00 83 1005.4
20260505064246 22 217 6.4 16.1 0.00 0.00 0.00 83 1005.6
20260505063744 22 170 6.4 17.7 0.00 0.00 0.00 83 1005.6
20260505063240 22 190 9.7 14.5 0.00 0.00 0.00 83 1005.6
20260505062736 22 207 8.0 20.9 0.00 0.00 0.00 82 1005.5
20260505062234 22 217 4.8 19.3 0.00 0.00 0.00 82 1005.3
20260505061731 22 198 6.4 20.9 0.00 0.00 0.00 82 1005.3
20260505061229 22 254 4.8 14.5 0.00 0.00 0.00 82 1005.7
20260505060726 22 114 9.7 19.3 0.00 0.00 0.00 82 1005.6
20260505060223 22 133 8.0 14.5 0.00 0.00 0.00 81 1005.6
20260505055718 22 262 6.4 22.5 0.00 0.00 0.00 81 1005.8
20260505055215 22 170 19.3 19.3 0.00 0.00 0.00 81 1005.6
20260505054712 22 204 8.0 20.9 0.00 0.00 0.00 81 1005.7
20260505054210 22 235 4.8 12.9 0.00 0.00 0.00 81 1005.9
20260505053708 22 200 4.8 16.1 0.00 0.00 0.00 81 1005.8
20260505053204 22 234 8.0 17.7 0.00 0.00 0.00 80 1005.8
20260505052701 22 168 3.2 16.1 0.00 0.00 0.00 80 1005.9
20260505052158 22 202 3.2 22.5 0.00 0.00 0.00 80 1005.6
20260505051655 22 159 8.0 14.5 0.00 0.00 0.00 80 1005.9
20260505051154 22 243 3.2 24.1 0.00 0.00 0.00 79 1005.9
20260505050651 22 210 9.7 16.1 0.00 0.00 0.00 79 1006.1
20260505050149 22 172 8.0 24.1 0.00 0.00 0.00 79 1006.1
20260505041619 22 183 6.4 16.1 0.00 0.00 0.00 78 1006.4
20260505041116 22 255 3.2 11.3 0.00 0.00 0.00 77 1006.5
20260505040613 22 244 6.4 16.1 0.00 0.00 0.00 77 1006.3
20260505040110 22 214 3.2 14.5 0.00 0.00 0.00 77 1006.3
20260505035606 22 189 4.8 12.9 0.00 0.00 0.00 77 1006.4
20260505035103 22 235 4.8 12.9 0.00 0.00 0.00 77 1006.4
20260505034559 22 150 8.0 14.5 0.00 0.00 0.00 76 1006.1